This is the latest recevied weather packets stored in our database for station/object OH7GGX-14. If no packets are shown the sender has not sent any weather packets the latest 10 day(s).
| Time | Temp. | Humidity | Pressure | Rain* | Wind** | Luminosity | Snow |
|---|---|---|---|---|---|---|---|
| 1778140288 | 9.44° C | 49% | 1018.3 hPa | 0 mm | - | - | - |
| 1778139688 | 9.44° C | 48% | 1018.1 hPa | 0 mm | - | - | - |
| 1778139088 | 9.44° C | 51% | 1018.1 hPa | 0 mm | - | - | - |
| 1778138488 | 9.44° C | 51% | 1018.2 hPa | 0 mm | - | - | - |
| 1778137888 | 8.89° C | 54% | 1018.3 hPa | 0 mm | - | - | - |
| 1778137288 | 8.33° C | 55% | 1018.2 hPa | 0 mm | - | - | - |
| 1778136688 | 8.33° C | 56% | 1018.3 hPa | 0 mm | - | - | - |
| 1778136089 | 8.33° C | 57% | 1018.3 hPa | 0 mm | - | - | - |
| 1778135489 | 7.78° C | 61% | 1018.3 hPa | 0 mm | - | - | - |
| 1778134889 | 7.78° C | 62% | 1018.4 hPa | 0 mm | - | - | - |
| 1778134289 | 7.22° C | 67% | 1018.3 hPa | 0 mm | - | - | - |
| 1778133689 | 7.22° C | 73% | 1018.3 hPa | 0 mm | - | - | - |
| 1778133089 | 6.67° C | 78% | 1018.4 hPa | 0 mm | - | - | - |
| 1778132489 | 6.11° C | 85% | 1018.3 hPa | 0 mm | - | - | - |
| 1778131889 | 5.56° C | 94% | 1018.4 hPa | 0 mm | - | - | - |
| 1778131289 | 4.44° C | 99% | 1018.4 hPa | 0 mm | - | - | - |
| 1778130689 | 3.89° C | 99% | 1018.3 hPa | 0 mm | - | - | - |
| 1778130089 | 2.78° C | 99% | 1018.3 hPa | 0 mm | - | - | - |
| 1778129489 | 2.22° C | 99% | 1018.4 hPa | 0 mm | - | - | - |
| 1778128889 | 1.11° C | 99% | 1018.3 hPa | 0 mm | - | - | - |
| 1778128289 | 0.56° C | 99% | 1018.4 hPa | 0 mm | - | - | - |
| 1778127689 | 0° C | 99% | 1018.4 hPa | 0 mm | - | - | - |
| 1778127089 | -0.56° C | 99% | 1018.3 hPa | 0 mm | - | - | - |
| 1778126489 | -1.11° C | 99% | 1018.4 hPa | 0 mm | - | - | - |
| 1778125889 | -1.11° C | 99% | 1018.4 hPa | 0 mm | - | - | - |
* Rain latest hour (hover to see other rain measurements)
** Current wind speed in m/s (hover to see current wind gust speed)